Ainsworth, NE

6:48 AM CST on November 19, 2017 (GMT -0600)
Ainsworth Municipal

Weather History for KANW - March, 2014

Change the Weather History Date:

Tuesday, March 4, 2014

  Actual Average Record
Temperature  
Mean Temperature 19 °F -  
Max Temperature 28 °F 35 °F 73 °F (2009)
Min Temperature 10 °F 17 °F 2 °F (2015)
Degree Days  
Heating Degree Days 46    
Moisture  
Dew Point 14 °F    
Average Humidity 82    
Maximum Humidity 93    
Minimum Humidity 69    
Precipitation  
Precipitation 0.00 in - - ()
Sea Level Pressure  
Sea Level Pressure 29.94 in    
Wind  
Wind Speed 6 mph (ENE)    
Max Wind Speed 15 mph    
Max Gust Speed -    
Visibility 10 miles    
Events      
Averages and records for this station are not official NWS values.
T = Trace of Precipitation, MM = Missing Value Source: NWS Daily Summary

Daily Weather History Graph

Daily Weather History Graph

Search for Another Location

Airport or City:

Trip Planner

Search our weather history database for the weather conditions in past years. The results will help you decide how hot, cold, wet, or windy it might be!

Date:

Astronomy

Mar. 04, 2014 Rise Set
Actual Time 7:10 AM CST 6:33 PM CST
Civil Twilight 6:42 AM CST 7:01 PM CST
Nautical Twilight 6:09 AM CST 7:34 PM CST
Astronomical Twilight 5:37 AM CST 8:07 PM CST
Moon 8:52 AM CST (3/4) 10:48 PM CST (3/4)
Length of Visible Light 12h 19m
Length of Day
11h 22m
Waxing Crescent, 15% of the Moon is Illuminated
Mar 4
Waxing Crescent
Mar 8
First Quarter
Mar 16
Full
Mar 23
Last Quarter
Mar 30
New

Hourly Weather History & Observations

Time (CST) Temp. Windchill Dew Point Humidity Pressure Visibility Wind Dir Wind Speed Gust Speed Precip Events Conditions
12:16 AM 14.0 °F - 12.2 °F 93% 29.93 in 10.0 mi Calm Calm - N/A   Clear
1:16 AM 10.4 °F - 8.6 °F 92% 29.94 in 10.0 mi Calm Calm - N/A   Clear
1:36 AM 10.4 °F - 8.6 °F 92% 29.93 in 10.0 mi Calm Calm - N/A   Clear
2:16 AM 10.4 °F - 8.6 °F 92% 29.93 in 10.0 mi Calm Calm - N/A   Clear
2:36 AM 10.4 °F - 8.6 °F 92% 29.94 in 10.0 mi Calm Calm - N/A   Clear
2:59 AM 12.2 °F - 10.4 °F 92% 29.94 in 10.0 mi Calm Calm - N/A   Clear
3:36 AM 12.2 °F - 10.4 °F 92% 29.92 in 10.0 mi Calm Calm - N/A   Clear
4:27 AM 10.4 °F 0.8 °F 6.8 °F 85% 29.90 in 10.0 mi NE 5.8 mph - N/A   Clear
4:37 AM 10.4 °F 2.2 °F 8.6 °F 92% 29.89 in 10.0 mi ENE 4.6 mph - N/A   Clear
5:03 AM 10.4 °F 2.2 °F 8.6 °F 92% 29.89 in 10.0 mi East 4.6 mph - N/A   Clear
5:37 AM 10.4 °F 4.0 °F 8.6 °F 92% 29.90 in 10.0 mi SE 3.5 mph - N/A   Clear
5:57 AM 10.4 °F 4.0 °F 6.8 °F 85% 29.91 in 10.0 mi SSE 3.5 mph - N/A   Clear
6:16 AM 10.4 °F 0.8 °F 8.6 °F 92% 29.91 in 10.0 mi SSE 5.8 mph - N/A   Clear
6:39 AM 10.4 °F -0.4 °F 8.6 °F 92% 29.90 in 10.0 mi ESE 6.9 mph - N/A   Clear
6:56 AM 12.2 °F 0.7 °F 10.4 °F 92% 29.89 in 10.0 mi East 8.1 mph - N/A   Clear
7:40 AM 14.0 °F 2.0 °F 10.4 °F 86% 29.88 in 10.0 mi East 9.2 mph - N/A   Clear
7:56 AM 14.0 °F 1.2 °F 10.4 °F 86% 29.88 in 10.0 mi East 10.4 mph - N/A   Clear
8:16 AM 15.8 °F 3.4 °F 12.2 °F 86% 29.88 in 10.0 mi East 10.4 mph - N/A   Clear
8:36 AM 15.8 °F 5.1 °F 12.2 °F 86% 29.90 in 10.0 mi ESE 8.1 mph - N/A   Clear
8:56 AM 17.6 °F 8.2 °F 12.2 °F 79% 29.90 in 10.0 mi ESE 6.9 mph - N/A   Clear
9:20 AM 17.6 °F 5.7 °F 12.2 °F 79% 29.89 in 10.0 mi East 10.4 mph - N/A   Clear
10:00 AM 19.4 °F 7.9 °F 14.0 °F 80% 29.89 in 10.0 mi ESE 10.4 mph - N/A   Clear
10:16 AM 19.4 °F 8.6 °F 14.0 °F 80% 29.89 in 10.0 mi ESE 9.2 mph - N/A   Clear
10:36 AM 21.2 °F 10.1 °F 15.8 °F 80% 29.88 in 10.0 mi ESE 10.4 mph - N/A   Clear
10:56 AM 21.2 °F 10.9 °F 15.8 °F 80% 29.88 in 10.0 mi ESE 9.2 mph - N/A   Clear
11:16 AM 21.2 °F 10.9 °F 15.8 °F 80% 29.88 in 10.0 mi ESE 9.2 mph - N/A   Clear
11:40 AM 24.8 °F 16.9 °F 17.6 °F 74% 29.88 in 10.0 mi ESE 6.9 mph - N/A   Clear
11:56 AM 24.8 °F 16.9 °F 17.6 °F 74% 29.88 in 10.0 mi ESE 6.9 mph - N/A   Clear
12:16 PM 24.8 °F 16.1 °F 17.6 °F 74% 29.87 in 10.0 mi ESE 8.1 mph - N/A   Clear
12:36 PM 26.6 °F 19.1 °F 19.4 °F 74% 29.87 in 10.0 mi East 6.9 mph - N/A   Clear
1:00 PM 26.6 °F 20.0 °F 19.4 °F 74% 29.86 in 10.0 mi East 5.8 mph - N/A   Clear
1:16 PM 28.4 °F 23.3 °F 21.2 °F 74% 29.85 in 10.0 mi ENE 4.6 mph - N/A   Clear
1:42 PM 28.4 °F 23.3 °F 21.2 °F 74% 29.85 in 10.0 mi ENE 4.6 mph - N/A   Clear
2:56 PM 28.4 °F 20.4 °F 21.2 °F 74% 29.88 in 10.0 mi NNE 8.1 mph - N/A   Clear
3:16 PM 28.4 °F 17.0 °F 19.4 °F 69% 29.90 in 10.0 mi North 15.0 mph - N/A   Clear
3:39 PM 28.4 °F 18.5 °F 19.4 °F 69% 29.90 in 10.0 mi NNE 11.5 mph - N/A   Clear
3:56 PM 28.4 °F 19.1 °F 19.4 °F 69% 29.91 in 10.0 mi North 10.4 mph - N/A   Clear
4:16 PM 26.6 °F 16.8 °F 19.4 °F 74% 29.91 in 10.0 mi NE 10.4 mph - N/A   Clear
4:39 PM 26.6 °F 16.8 °F 19.4 °F 74% 29.91 in 10.0 mi NE 10.4 mph - N/A   Clear
4:56 PM 26.6 °F 17.5 °F 17.6 °F 69% 29.92 in 10.0 mi NE 9.2 mph - N/A   Clear
5:16 PM 26.6 °F 16.8 °F 17.6 °F 69% 29.92 in 10.0 mi NE 10.4 mph - N/A   Clear
5:39 PM 24.8 °F 14.6 °F 17.6 °F 74% 29.92 in 10.0 mi NNE 10.4 mph - N/A   Clear
5:56 PM 24.8 °F 14.0 °F 17.6 °F 74% 29.95 in 10.0 mi North 11.5 mph - N/A   Clear
6:16 PM 21.2 °F 8.3 °F 15.8 °F 80% 29.97 in 10.0 mi North 13.8 mph - N/A   Clear
6:36 PM 21.2 °F 9.5 °F 15.8 °F 80% 29.98 in 10.0 mi North 11.5 mph - N/A   Clear
7:16 PM 21.2 °F 8.3 °F 15.8 °F 80% 29.99 in 10.0 mi North 13.8 mph - N/A   Overcast
7:36 PM 21.2 °F 10.1 °F 15.8 °F 80% 30.01 in 10.0 mi North 10.4 mph - N/A   Overcast
7:56 PM 21.2 °F 9.5 °F 15.8 °F 80% 30.02 in 10.0 mi North 11.5 mph - N/A   Overcast
8:19 PM 19.4 °F 7.9 °F 15.8 °F 86% 30.03 in 10.0 mi North 10.4 mph - N/A   Overcast
8:36 PM 19.4 °F 6.6 °F 15.8 °F 86% 30.03 in 10.0 mi North 12.7 mph - N/A   Overcast
9:16 PM 19.4 °F 7.9 °F 14.0 °F 80% 30.06 in 10.0 mi North 10.4 mph - N/A   Overcast
9:41 PM 19.4 °F 8.6 °F 14.0 °F 80% 30.07 in 10.0 mi North 9.2 mph - N/A   Overcast
10:16 PM 17.6 °F 5.0 °F 14.0 °F 86% 30.08 in 10.0 mi North 11.5 mph - N/A   Overcast
10:39 PM 17.6 °F 5.7 °F 14.0 °F 86% 30.09 in 10.0 mi North 10.4 mph - N/A   Overcast
10:56 PM 17.6 °F 6.4 °F 14.0 °F 86% 30.10 in 10.0 mi North 9.2 mph - N/A   Overcast
11:21 PM 17.6 °F 7.3 °F 14.0 °F 86% 30.11 in 10.0 mi North 8.1 mph - N/A   Overcast
11:56 PM 17.6 °F 8.2 °F 15.8 °F 93% 30.11 in 10.0 mi North 6.9 mph - N/A   Overcast